EW0956 Weather Reports


time (UTC)temp
C
wind
direction
speed
KPH
gust
KPH
rain 1hr
cm
rain 24hr
cm
rain mn
cm
humidity
%
barometer
mb
20260502163028 12 55 0.0 3.2 0.00 0.00 0.00 41 1021.1
20260502161525 12 51 0.0 12.9 0.00 0.00 0.00 40 1021.3
20260502151538 11 51 0.0 3.2 0.00 0.00 0.00 46 1021.7
20260502123041 2 46 0.0 1.6 0.00 0.00 0.00 74 1022.4
20260502121540 2 49 0.0 3.2 0.00 0.00 0.00 76 1022.2
20260502114533 -17 0.0 0.0 0.00 0.00 0.00 1022.0
20260502113035 -17 0.0 0.0 0.00 0.00 0.00 1021.9
20260502111525 -17 0.0 0.0 0.00 0.00 0.00 1022.0
20260502110032 -17 0.0 0.0 0.00 0.00 0.00 1022.0
20260502104516 0 54 0.0 1.6 0.00 0.00 0.00 81 1022.0
20260502103015 0 63 0.0 0.0 0.00 0.00 0.00 83 1022.0
20260502101513 0 63 0.0 0.0 0.00 0.00 0.00 82 1021.9
20260502091510 0 37 0.0 0.0 0.00 0.00 0.00 81 1021.9
20260502070111 1 96 0.0 0.0 0.00 0.00 0.00 77 1022.0
20260502064607 1 95 0.0 0.0 0.00 0.00 0.00 74 1022.1
20260502063053 1 96 0.0 0.0 0.00 0.00 0.00 73 1022.1
20260502061546 2 95 0.0 0.0 0.00 0.00 0.00 69 1022.1
20260502060043 3 96 0.0 0.0 0.00 0.00 0.00 67 1022.1
20260502054541 3 96 0.0 0.0 0.00 0.00 0.00 66 1022.1
20260502053039 3 95 0.0 0.0 0.00 0.00 0.00 66 1022.1
20260502051536 3 95 0.0 0.0 0.00 0.00 0.00 67 1021.9
20260502050038 3 96 0.0 0.0 0.00 0.00 0.00 67 1021.7
20260502044531 3 96 0.0 0.0 0.00 0.00 0.00 66 1021.7
20260502043029 3 96 0.0 0.0 0.00 0.00 0.00 66 1021.7
20260502041530 3 94 0.0 0.0 0.00 0.00 0.00 64 1021.7
20260502040029 5 94 0.0 0.0 0.00 0.00 0.00 62 1021.7
20260502034528 5 98 0.0 0.0 0.00 0.00 0.00 61 1021.7
20260502033030 5 98 0.0 0.0 0.00 0.00 0.00 59 1021.7
20260502031527 6 98 0.0 0.0 0.00 0.00 0.00 59 1021.6
20260502030026 6 95 0.0 0.0 0.00 0.00 0.00 58 1021.5
20260502024525 6 94 0.0 0.0 0.00 0.00 0.00 57 1021.5
20260502023023 6 94 0.0 0.0 0.00 0.00 0.00 55 1021.3
20260502021523 6 98 0.0 0.0 0.00 0.00 0.00 55 1021.2
20260502020020 7 89 0.0 0.0 0.00 0.00 0.00 53 1021.0
20260502014518 7 98 0.0 0.0 0.00 0.00 0.00 51 1020.8
20260502013016 8 106 0.0 0.0 0.00 0.00 0.00 49 1020.7
20260502011515 9 120 0.0 1.6 0.00 0.00 0.00 47 1020.5
20260502010014 10 97 0.0 1.6 0.00 0.00 0.00 46 1020.3
20260502004512 10 78 0.0 1.6 0.00 0.00 0.00 44 1020.1
20260502003011 10 93 0.0 1.6 0.00 0.00 0.00 42 1019.9
20260502001638 11 102 0.0 1.6 0.00 0.00 0.00 41 1019.9
20260502000010 10 114 0.0 1.6 0.00 0.00 0.00 43 1019.9
20260501234509 11 108 0.0 1.6 0.00 0.00 0.00 43 1019.9
20260501233008 11 109 0.0 1.6 0.00 0.00 0.00 43 1019.8
20260501231507 11 128 0.0 1.6 0.00 0.00 0.00 42 1019.8
20260501230010 12 120 0.0 1.6 0.00 0.00 0.00 41 1019.7
20260501224508 12 122 0.0 1.6 0.00 0.00 0.00 39 1019.6
20260501223006 12 82 0.0 1.6 0.00 0.00 0.00 37 1019.6
20260501221510 12 86 0.0 1.6 0.00 0.00 0.00 39 1019.5
20260501220015 12 90 0.0 4.8 0.00 0.00 0.00 39 1019.5
20260501214502 11 103 0.0 3.2 0.00 0.00 0.00 43 1019.4
20260501213002 11 106 0.0 1.6 0.00 0.00 0.00 42 1019.6
20260501211501 11 86 0.0 3.2 0.00 0.00 0.00 42 1019.6
20260501210100 12 60 0.0 3.2 0.00 0.00 0.00 40 1019.6
20260501204558 12 136 0.0 4.8 0.00 0.00 0.00 43 1019.6
20260501203059 11 60 0.0 3.2 0.00 0.00 0.00 43 1019.7
20260501201558 10 84 0.0 1.6 0.00 0.00 0.00 45 1019.8
20260501200055 11 87 0.0 1.6 0.00 0.00 0.00 46 1019.7
20260501194600 10 56 0.0 1.6 0.00 0.00 0.00 46 1019.7
20260501193053 11 124 0.0 3.2 0.00 0.00 0.00 48 1019.8
20260501191553 11 87 0.0 3.2 0.00 0.00 0.00 44 1019.9
20260501190048 10 74 0.0 3.2 0.00 0.00 0.00 53 1019.9
20260501184546 10 91 0.0 3.2 0.00 0.00 0.00 52 1019.9
20260501183046 10 105 0.0 3.2 0.00 0.00 0.00 54 1019.9
20260501181545 9 93 0.0 1.6 0.00 0.00 0.00 54 1019.9
20260501180044 8 91 0.0 4.8 0.00 0.00 0.00 56 1019.9